Regional Weather Roundup
Issued by NWS Upton, NY

Current Version | Previous Version | Text Only | Print | Product List | Glossary On
Versions: 1 2 3 4 5 6 7 8 9 10 11 12 13 14 15 16 17 18 19 20 21 22 23 24 25 26 27 28 29 30 31 32 33 34 35 36 37 38 39 40 41 42 43 44 45 46 47 48 49 50
000
ASUS41 KOKX 210907
RWROKX

REGIONAL WEATHER ROUNDUP
NATIONAL WEATHER SERVICE NEW YORK NY
500 AM EDT TUE APR 21 2015

NOTE: "FAIR" INDICATES FEW OR NO CLOUDS BELOW 12,000 FEET WITH NO
SIGNIFICANT WEATHER AND/OR OBSTRUCTIONS TO VISIBILITY.

NYZ071-072-176-178-NJZ106-104-211000-
NEW YORK CITY METRO AREA


CITY           SKY/WX    TMP DP  RH WIND       PRES   REMARKS
CENTRAL PARK   LGT RAIN  53  53 100 CALM      29.59F FOG
LAGUARDIA APRT LGT RAIN  55  52  89 CALM      29.56S
KENNEDY INTL   MOCLDY    53  50  89 E5        29.56F
NEWARK/LIBERTY LGT RAIN  56  54  93 SE3       29.56S
BRNX BOT. GARD   N/A     54  54 100 W3        29.58F
TETERBORO      LGT RAIN  54  53  97 CALM      29.55F FOG
$$

NYZ177-179-078>081-211000-
LONG ISLAND NEW YORK

CITY           SKY/WX    TMP DP  RH WIND       PRES   REMARKS
FARMINGDALE    MOCLDY    53  53 100 W3        29.57S
ISLIP          CLOUDY    53  52  96 S3        29.56R FOG
SHIRLEY        CLOUDY    52  52 100 SE7       29.57F FOG
WESTHAMPTON    CLOUDY    51  50  96 SW6       29.59R FOG
MONTAUK POINT    N/A     56  54  93 SW9G17    29.59R
$$

NYZ052-065-067-211000-
HUDSON VALLEY

CITY           SKY/WX    TMP DP  RH WIND       PRES   REMARKS
WHITE PLAINS   LGT RAIN  55  52  89 CALM      29.55R FOG
NEWBURGH       FOG       54  54 100 VRB6      29.58R VSB 1
MONTGOMERY     CLOUDY    51 N/A N/A W3        29.54S FOG
POUGHKEEPSIE   CLOUDY    54  52  93 CALM      29.53F
ALBANY         LGT RAIN  51  47  86 CALM      29.56R
$$

NJZ001-105-106-008-010-013-015-019>022-104-211000-
NEW JERSEY

CITY           SKY/WX    TMP DP  RH WIND       PRES   REMARKS
NEWARK/LIBERTY LGT RAIN  56  54  93 SE3       29.56S
TETERBORO      LGT RAIN  54  53  97 CALM      29.55F FOG
CALDWELL       LGT RAIN  54  53  97 NW3       29.57R
MORRISTOWN     LGT RAIN  55  54  94 W3        29.57S
SOMERVILLE     LGT RAIN  56  53  90 E3        29.53F
SUSSEX         LGT RAIN  52  50  93 SW6       29.58R
ANDOVER          N/A     53  52  96 CALM      29.57R
TRENTON        RAIN      56  54  93 CALM      29.57F FOG
MILLVILLE      LGT RAIN  58  56  93 W7        29.61R
ATLANTIC CITY  MOCLDY    58  56  93 NW3       29.60R
WRIGHTSTOWN    MOCLDY    55  55 100 SE5       29.55S
TOMS RIVER     CLOUDY    57  55  94 NW6       29.61R
BELMAR         CLOUDY    55  50  82 N7        29.57S
$$

PAZ047>061-062-071-211000-
EASTERN PENNSYLVANIA

CITY           SKY/WX    TMP DP  RH WIND       PRES   REMARKS
PHILADELPHIA   LGT RAIN  59  57  93 S5        29.59S FOG
ALLENTOWN      CLOUDY    54  53  97 NW6       29.58R FOG
SCRANTON       RAIN      53  50  89 MISG      29.58R FOG
$$

CTZ002-004>006-009-010-012-RIZ004-006-007-MAZ004-011-015-211000-
SOUTHERN NEW ENGLAND
 IN CT

CITY           SKY/WX    TMP DP  RH WIND       PRES   REMARKS
BRADLEY INTL   LGT RAIN  51  48  89 N5        29.56S
HARTFORD       RAIN      50  48  93 SE9       29.58R FOG
DANBURY        CLOUDY    53  52  96 E3        29.57S
WTRBRY/OXFORD  CLOUDY    54  48  82 W5        29.59R
BRIDGEPORT     CLOUDY    51  50  96 CALM      29.56R FOG
MERIDEN        LGT RAIN  53  50  89 N3        29.55F
NEW HAVEN      CLOUDY    52  52 100 CALM      29.55F FOG
CHESTER        HVY RAIN  55  55 100 W5        29.57S VSB 1/2
GROTON         CLOUDY    55  55 100 SW14      29.57R
WILLIMANTIC    CLOUDY    55  54  96 SW3       29.56F FOG

 IN RI

CITY           SKY/WX    TMP DP  RH WIND       PRES   REMARKS
PROVIDENCE     FOG       52  51  97 SE6       29.56F VSB 1
BLOCK ISLAND   CLOUDY    54  50  87 SW16      29.57F VSB 3/4
WESTERLY       FOG       53  53 100 SW10      29.58R VSB 3/4

 IN MA

CITY           SKY/WX    TMP DP  RH WIND       PRES   REMARKS
BOSTON         LGT RAIN  47  47 100 SE8       29.58F VSB 1/2
WORCESTER      FOG       49  48  97 E5        29.57R VSB 1/2
WESTFIELD      CLOUDY    50  47  89 NE6       29.56F
PROVINCETOWN   CLOUDY   N/A N/A N/A SE14G21   29.60F VSB 1
NANTUCKET      LGT RAIN  51  50  96 SE14      29.61F VSB 1/4
$$

ANZ330-335-338-340-345-350-353-355-211000-
COASTAL MARINE OBSERVATIONS


STATION/POSITION TIME  SKY/WX   TEMP    WIND        PRES    VSBY  WAVE
                                AIR SEA DIR/SP/G                  HT/PER
                 (UTC)          (F)     (DEG/KT/KT) (MB)    (MI)  (FT/S)
NY HARB ENTRANCE 0850            48 44  320/  4/  6 1001.0          7/ 9
4S FIRE IS       0803               43                N/A           9/ 9
20S FIRE ISLAND  0750               43              1002.1          9/ 9
23SW MTP         NOT AVBL
HUDSON CANYON    NOT AVBL
EXECUTION ROCKS  NOT AVBL
WESTERN LI SOUND NOT AVBL
CENTRAL LI SOUND NOT AVBL
EASTERN LI SOUND 0800            49     210/  6/ 12   N/A
ROBBINS REEF     0800            54     300/  3/  3 1000.4
$$


>>>>>>>>>>>>>>>>>>>>>>>>>>>> KEY <<<<<<<<<<<<<<<<<<<<<<<<<<<
>                                                          <
>     SKY/WX - SKY CONDITION/PRESENT WEATHER               <
>     TMP    - TEMPERATURE IN FAHRENHEIT                   <
>     DP     - DEWPOINT IN FAHRENHEIT                      <
>     RH     - RELATIVE HUMIDITY IN PERCENT                <
>     WIND   - DIRECTION AND SPEED IN MPH                  <
>     PRES   - MEAN SEA LEVEL PRESSURE IN INCHES OF HG     <
>     WCI    - WIND CHILL INDEX                            <
>     VSB    - VISIBILITY IN MILES                         <
>     HX     - HEAT INDEX                                  <
>     TC     - TEMPERATURE IN CELSIUS                      <
>     VRB    - VARIABLE WIND DIRECTION                     <
>                                                          <
>>>>>>>>>>>>>>>>>>>>>>>>>>>> KEY <<<<<<<<<<<<<<<<<<<<<<<<<<<





USA.gov is the U.S. government's official web portal to all federal, state and local government web resources and services.